Location: Fort Wayne
(41.1310°N, 85.1290°W)
Time: 17:17:59
(UTC-04:00)

Oscar 19 - Visible Passes

Search period start: 24 May 2015 00:00
Search period end: 03 June 2015 00:00
Orbit: 775 x 790 km, 98.5° (Epoch: 23 May)

Date Brightness Start Highest point End Pass type
(mag) Time Alt. Az. Time Alt. Az. Time Alt. Az.
24 May 11.7 02:34:00 10° NNE 02:38:35 32° E 02:39:14 31° ESE visible
24 May 11.7 04:13:23 10° N 04:17:54 30° WNW 04:19:48 24° WSW visible
25 May 12.6 02:03:25 10° NE 02:06:32 16° E 02:07:11 16° E visible
25 May 10.8 03:41:17 10° N 03:46:22 59° WNW 03:47:44 44° SW visible
26 May 10.7 03:09:31 10° NNE 03:14:41 71° ESE 03:15:42 56° SSE visible
26 May 12.6 04:50:31 10° NNW 04:53:31 15° WNW 04:56:16 10° W visible
27 May 11.6 02:38:09 10° NNE 02:42:51 35° E 02:43:39 34° ESE visible
27 May 11.8 04:17:42 10° N 04:22:07 28° WNW 04:24:13 21° WSW visible
28 May 12.5 02:07:25 10° NE 02:10:49 18° E 02:11:35 18° ESE visible
28 May 10.9 03:45:32 10° N 03:50:34 53° WNW 03:52:09 39° WSW visible
29 May 10.6 03:13:44 10° NNE 03:18:55 78° ESE 03:20:06 54° S visible
29 May 12.7 04:55:01 10° NNW 04:57:41 14° WNW 05:00:08 10° W visible
30 May 11.5 02:42:18 10° NNE 02:47:06 39° E 02:48:02 36° ESE visible
30 May 12.0 04:22:03 10° N 04:26:18 26° WNW 04:28:36 19° WSW visible
31 May 12.4 02:11:28 10° NE 02:15:06 20° E 02:15:58 19° ESE visible
31 May 11.0 03:49:49 10° N 03:54:47 49° WNW 03:56:33 34° WSW visible
01 Jun 10.5 03:17:58 10° NNE 03:23:09 85° ESE 03:24:29 51° S visible
01 Jun 12.7 04:59:33 10° NNW 05:01:51 13° WNW 05:03:55 10° W visible
02 Jun 11.3 02:46:29 10° NNE 02:51:21 43° E 02:52:25 38° SE visible
02 Jun 12.1 04:26:23 10° NNW 04:30:29 24° WNW 04:32:58 16° WSW visible
